Wetbulb
48.52 45.27 42.18 44.96 45.59 46.47 47.30 46.48 46.07 47.55 48.98 46.77 44.39 45.95 48.32 51.17 52.80 57.11 57.53 56.54 56.99 57.81 59.90 61.79 62.78 60.64 62.69 61.92 60.91 60.03 60.79 61.17 61.95 61.97 61.40 59.14 56.98 55.37 55.14 54.97 57.51 56.50 56.29 56.10
46.44 43.33 47.72 49.74 49.30 49.30 47.82 45.39 44.45 47.18 49.48 45.95 44.74 45.13 48.30 51.06 50.94 56.06 56.86 56.38 56.92 57.28 58.79 60.51 59.88 59.06 60.01 61.21 60.34 62.07 62.92 61.10 60.59 59.37 58.67 57.08 55.01 54.66 54.60 53.54 54.49 55.41 56.03 55.41
44.89 48.10 52.46 51.02 49.08 48.09 45.49 44.94 44.50 44.58 47.17 46.51 44.34 42.54 47.86 51.58 53.16 57.15 57.70 58.15 58.15 57.77 57.96 59.17 58.68 58.08 61.02 62.43 62.39 62.54 61.14 58.53 58.64 58.24 57.09 54.77 53.69 53.89 53.12 52.68 52.92 54.49 55.05 55.09
46.51 50.15 50.27 49.22 48.83 47.71 43.23 48.91 48.87 48.15 44.48 39.62 44.49 36.15 43.87 47.60 49.13 51.78 55.20 56.31 56.94 57.66 58.12 58.26 58.52 57.44 60.67 61.91 62.52 61.60 59.89 57.72 57.30 56.46 55.08 53.52 51.91 51.31 51.56 52.30 51.88 52.72 53.90 53.77
47.70 47.92 49.02 48.11 48.98 50.60 47.06 50.59 48.24 47.76 43.12 40.67 41.75 38.08 41.41 46.06 46.67 47.57 49.44 54.23 55.91 56.99 57.43 58.25 58.29 59.43 60.01 61.11 60.80 58.55 58.00 57.52 56.83 55.65 54.83 53.78 51.78 52.40 52.20 52.06 51.39 51.17 51.58 52.45
49.20 51.68 50.76 49.65 51.63 51.10 51.84 47.75 45.59 43.75 39.80 35.90 40.13 40.88 40.10 42.21 45.78 47.06 49.85 52.68 57.57 57.05 57.98 58.09 58.31 58.97 59.25 57.98 57.13 56.63 56.17 54.99 55.09 55.07 54.53 53.35 52.23 50.52 49.97 49.92 49.78 49.42 49.93 50.15
49.38 48.41 51.08 53.02 48.83 49.56 47.66 41.95 35.39 35.86 34.92 35.07 41.42 40.96 40.50 45.70 48.77 49.37 49.21 53.56 56.24 55.88 56.21 55.94 56.70 53.73 53.79 55.41 55.17 54.27 53.56 53.22 53.67 52.77 52.06 52.16 51.68 50.12 49.19 49.34 49.02 48.19 48.21 48.62
44.34 42.43 50.01 53.32 48.95 45.19 44.93 42.58 36.13 30.84 31.62 35.02 42.92 38.68 41.87 48.68 49.58 50.50 50.85 51.81 55.19 54.83 53.65 55.48 55.43 52.55 51.61 52.47 52.05 51.77 51.86 50.16 50.57 51.26 52.52 51.39 50.54 50.34 49.79 49.09 49.00 48.81 48.31 51.73
44.85 46.13 51.96 53.07 52.41 50.24 46.24 41.76 44.19 38.16 37.71 35.04 38.67 42.63 47.37 48.57 49.44 50.23 49.92 50.86 49.27 50.68 52.29 52.17 51.93 51.68 51.82 50.74 50.89 50.69 49.66 49.69 50.16 51.24 52.04 50.82 50.28 49.31 48.88 48.90 48.79 51.73 51.81 51.82
47.88 43.25 51.38 53.34 53.03 51.43 47.88 48.75 40.90 38.09 32.52 30.76 36.46 39.40 40.39 45.67 47.23 48.61 48.23 47.87 48.64 49.24 49.76 50.71 50.92 50.51 49.78 49.24 48.62 48.82 49.12 48.95 49.44 50.73 50.26 50.45 49.33 49.66 48.99 49.12 50.59 49.99 50.23 50.63
48.80 44.71 45.97 50.78 47.86 46.66 46.85 43.28 42.15 40.48 38.31 33.05 32.15 37.31 45.66 46.37 47.13 47.06 47.53 48.28 48.28 48.66 48.64 48.86 49.05 49.39 49.09 48.86 48.56 48.17 48.22 48.77 49.66 49.60 49.33 49.04 49.26 48.84 48.80 48.24 48.19 49.59 50.08 50.18
50.31 45.22 41.38 44.19 50.02 51.74 48.55 44.65 41.95 35.81 35.83 37.36 35.80 37.02 47.64 47.64 48.17 49.04 48.95 49.14 47.79 48.80 48.10 48.52 49.31 49.32 48.49 47.63 47.61 47.92 47.96 49.63 49.25 49.04 48.45 48.14 47.85 48.94 49.22 46.68 49.39 49.99 49.53 50.14
50.07 42.41 38.17 42.08 44.62 48.92 46.88 48.47 44.78 41.57 38.37 37.03 34.06 36.95 48.92 48.95 48.63 49.27 48.77 48.97 48.71 48.49 47.84 47.80 48.13 48.29 48.34 48.08 48.37 48.11 48.30 49.34 49.45 49.34 47.95 47.41 47.49 48.33 48.71 48.54 49.08 49.48 49.61 50.28
52.56 44.73 41.58 38.21 40.91 45.72 44.13 46.77 46.63 42.17 35.69 37.24 39.62 41.88 45.49 47.22 47.32 47.59 47.30 47.26 47.80 47.83 48.10 46.89 46.69 47.33 47.74 48.46 48.33 48.40 49.45 49.27 49.03 48.46 47.27 46.11 46.28 48.48 48.44 48.82 49.03 49.44 50.06 49.80
48.88 42.75 44.94 46.55 48.41 47.61 45.72 46.05 46.32 42.39 42.29 38.71 41.79 41.50 44.42 46.55 46.76 47.51 48.02 48.07 48.24 48.30 48.54 47.95 46.77 46.39 46.74 46.65 47.21 48.74 49.06 48.95 47.69 46.95 45.83 45.23 46.49 49.07 49.00 49.04 49.58 48.91 49.34 49.68
47.96 42.93 44.23 43.62 48.59 48.57 46.80 47.97 47.43 46.69 47.00 45.75 44.27 43.24 47.30 47.21 47.45 47.55 48.13 48.54 48.11 48.52 49.05 48.94 48.78 48.32 47.58 47.66 47.87 48.16 48.63 47.78 46.74 45.49 45.30 46.63 47.96 48.82 48.88 49.32 48.44 48.57 49.00 49.40
46.67 44.66 41.89 39.06 46.45 46.10 40.29 45.68 47.14 47.51 47.81 46.11 43.09 45.17 47.33 47.56 48.49 46.87 47.61 48.75 48.99 49.54 49.42 49.06 49.30 48.12 47.34 47.45 47.65 46.23 47.47 46.60 45.53 45.42 46.07 46.75 47.54 48.50 48.32 49.16 48.58 48.64 48.74 49.28
47.14 45.10 43.89 40.45 42.52 34.48 44.46 51.22 51.91 49.63 50.40 48.94 49.47 50.51 49.18 48.46 47.78 48.79 49.04 49.13 49.98 50.80 50.41 49.03 48.57 47.84 47.01 47.50 46.99 47.32 46.54 45.89 45.23 44.64 44.92 45.88 47.65 48.19 48.76 48.17 48.07 48.54 48.98 48.85
49.80 46.35 42.51 39.75 38.93 43.87 47.58 48.84 47.76 46.81 46.89 51.41 49.30 50.30 51.82 51.73 50.19 48.56 50.92 51.03 50.74 50.30 50.18 48.74 48.15 47.28 47.68 47.20 47.51 46.35 45.14 44.73 44.49 44.52 44.62 45.74 47.96 48.06 47.93 47.71 47.84 48.38 48.49 48.87
49.48 47.54 44.36 40.66 38.18 35.30 44.66 51.60 53.45 50.43 41.82 50.06 52.06 51.05 50.69 48.86 43.25 46.61 52.07 52.63 52.18 52.10 50.57 49.46 48.70 48.71 47.30 46.72 46.14 44.59 43.64 43.16 43.46 44.71 45.43 46.61 48.33 48.33 47.68 47.84 47.86 48.24 48.04 48.64
42.31 43.48 41.31 38.86 37.84 42.56 49.97 52.64 52.93 38.61 40.48 50.98 52.28 50.80 50.30 47.64 48.18 51.19 53.02 52.22 52.28 51.88 51.19 50.16 49.07 47.20 47.38 46.90 45.18 43.22 42.16 42.61 44.73 45.81 45.84 47.04 48.79 47.80 48.31 48.22 47.62 47.12 46.76 46.99
42.94 40.22 39.97 40.55 37.36 36.94 52.16 50.82 44.73 46.82 49.82 52.14 51.78 50.84 50.73 50.77 51.93 52.12 53.09 52.29 52.34 52.41 51.94 49.81 47.75 47.00 46.57 45.69 44.47 42.36 41.48 44.01 45.60 45.48 45.36 47.01 47.73 48.32 48.51 45.96 45.79 46.25 45.38 46.32
41.77 45.55 43.61 43.07 42.12 47.32 50.01 48.82 51.43 52.18 51.68 50.93 48.65 50.31 51.26 50.82 50.61 51.59 50.68 52.49 52.61 52.24 50.01 49.17 47.73 46.23 45.16 44.87 44.03 42.28 42.34 44.18 45.21 45.05 45.72 47.22 47.77 48.09 47.08 44.99 43.69 44.53 44.66 46.05
46.68 49.15 44.29 43.77 46.25 49.27 51.10 53.34 53.33 53.03 51.80 52.67 52.28 51.25 50.23 48.43 50.55 50.65 51.48 52.58 51.47 51.71 49.89 48.38 47.49 45.25 44.36 44.64 44.67 43.41 44.11 45.27 45.48 44.50 46.26 47.47 46.96 47.05 46.15 45.21 43.70 43.64 42.94 45.18
46.51 46.23 45.70 44.95 47.17 50.99 52.75 53.00 53.35 54.04 55.03 54.75 54.15 52.22 51.24 50.07 50.72 51.11 51.38 51.79 51.03 51.52 49.18 48.19 46.46 45.11 44.69 45.84 44.49 44.40 45.27 45.39 44.68 45.05 46.82 46.87 47.05 46.72 45.79 45.35 41.49 43.27 42.10 42.10
46.56 44.99 41.95 41.27 46.42 47.17 48.31 50.10 52.64 50.58 50.16 50.33 50.54 50.35 51.45 51.47 51.39 51.13 50.42 50.84 50.64 50.40 48.78 47.01 45.80 45.56 46.19 46.17 44.35 44.60 45.60 45.56 45.01 44.57 46.85 46.56 46.68 46.77 45.33 42.60 44.46 40.67 39.75 38.73
MSLP
1009.58 1010.37 1011.17 1010.85 1010.87 1010.90 1010.91 1010.93 1011.05 1010.60 1010.31 1010.43 1011.03 1011.11 1011.24 1011.60 1012.78 1014.86 1016.22 1017.05 1017.45 1017.51 1017.60 1017.53 1017.88 1017.85 1017.58 1017.69 1017.67 1017.68 1017.92 1018.36 1018.34 1019.03 1019.19 1019.39 1019.88 1019.61 1019.50 1019.28 1018.94 1018.66 1018.52 1018.52
1010.28 1010.57 1010.14 1010.17 1010.49 1010.67 1010.84 1011.09 1011.25 1011.01 1010.82 1010.98 1011.32 1012.02 1012.19 1012.45 1013.74 1014.63 1016.28 1017.36 1017.71 1018.16 1017.94 1017.57 1018.07 1017.94 1017.51 1017.56 1017.62 1018.17 1018.37 1019.09 1018.44 1019.05 1019.44 1019.53 1019.66 1019.62 1019.37 1019.03 1018.73 1018.66 1018.63 1018.51
1010.56 1009.95 1009.37 1009.60 1010.10 1010.62 1011.05 1011.29 1011.45 1011.74 1011.52 1011.47 1011.79 1013.23 1012.98 1013.42 1014.53 1015.68 1016.47 1016.61 1017.33 1017.38 1017.55 1017.77 1018.07 1018.20 1018.12 1018.09 1018.37 1018.54 1018.92 1018.60 1018.67 1019.28 1019.48 1019.53 1019.45 1019.33 1019.31 1019.11 1019.03 1018.86 1018.66 1018.45
1009.72 1009.22 1009.39 1009.94 1010.34 1010.69 1011.17 1011.20 1011.47 1011.87 1012.42 1012.78 1012.90 1014.44 1014.28 1014.47 1014.87 1015.91 1016.92 1017.11 1017.48 1017.63 1017.70 1017.69 1017.88 1018.13 1018.33 1018.13 1018.36 1018.70 1018.58 1018.63 1019.06 1018.99 1019.10 1019.22 1019.44 1019.79 1019.67 1019.39 1019.25 1019.11 1018.78 1018.61
1009.72 1009.38 1009.71 1010.12 1010.36 1010.47 1011.27 1011.37 1011.88 1012.29 1013.07 1013.70 1013.92 1014.68 1015.23 1015.02 1015.34 1015.56 1016.38 1016.53 1016.97 1017.06 1017.51 1018.04 1018.08 1018.10 1018.02 1018.07 1018.41 1018.57 1018.61 1018.77 1018.77 1018.68 1018.75 1019.10 1019.56 1019.62 1019.42 1019.41 1019.32 1019.17 1018.89 1018.62
1009.48 1009.34 1009.50 1009.80 1010.43 1010.94 1011.25 1012.05 1012.95 1013.86 1014.61 1015.42 1015.41 1015.16 1015.89 1015.54 1015.40 1015.41 1015.42 1015.85 1016.47 1017.01 1017.41 1017.71 1018.03 1017.99 1018.10 1018.32 1018.54 1018.59 1018.64 1018.71 1018.71 1018.80 1018.89 1019.02 1019.31 1019.52 1019.62 1019.54 1019.49 1019.22 1018.95 1018.63
1010.30 1010.13 1009.82 1009.73 1010.62 1011.32 1012.28 1013.80 1015.36 1016.30 1016.89 1017.01 1015.92 1015.55 1015.77 1015.20 1014.94 1014.96 1015.55 1015.92 1016.36 1016.81 1017.15 1017.60 1017.92 1017.91 1018.04 1018.27 1018.54 1018.76 1018.87 1018.97 1018.86 1018.82 1018.90 1018.98 1019.18 1019.31 1019.44 1019.43 1019.35 1019.17 1018.79 1018.29
1011.41 1011.15 1010.46 1010.27 1011.03 1012.09 1013.40 1014.80 1016.52 1018.00 1018.74 1018.05 1016.35 1016.20 1015.67 1015.03 1014.99 1015.18 1015.46 1016.04 1016.55 1016.91 1017.39 1017.67 1017.68 1018.06 1018.41 1018.61 1018.85 1018.99 1019.01 1019.04 1018.95 1018.83 1018.89 1018.97 1019.11 1019.19 1019.14 1019.09 1019.03 1018.80 1018.42 1017.82
1011.81 1011.75 1010.98 1010.71 1010.99 1012.13 1013.58 1014.80 1015.88 1017.55 1018.86 1018.86 1017.69 1016.48 1015.67 1015.58 1015.63 1015.68 1016.05 1016.17 1016.65 1017.22 1017.51 1018.15 1018.47 1018.67 1018.85 1018.88 1018.98 1018.95 1019.09 1019.06 1018.88 1018.91 1019.04 1019.12 1019.16 1019.17 1019.14 1018.96 1018.55 1018.11 1017.74 1017.27
1012.02 1012.34 1012.08 1011.62 1011.61 1012.29 1013.17 1014.43 1016.13 1017.90 1019.39 1019.48 1018.43 1017.27 1016.55 1016.06 1015.88 1016.13 1016.52 1016.74 1016.73 1017.10 1017.43 1017.99 1018.44 1018.95 1019.20 1019.20 1019.26 1019.26 1019.04 1019.08 1019.16 1019.20 1019.18 1019.22 1019.25 1019.23 1019.14 1018.81 1018.34 1017.83 1017.44 1016.99
1012.06 1013.20 1013.35 1012.70 1013.01 1013.21 1013.79 1014.83 1016.58 1018.06 1019.39 1019.72 1019.25 1017.67 1016.17 1016.04 1016.10 1016.22 1016.32 1016.59 1017.00 1017.30 1017.87 1018.38 1018.70 1019.06 1019.20 1019.28 1019.31 1019.38 1019.40 1019.38 1019.43 1019.17 1019.10 1019.14 1019.17 1019.05 1018.86 1018.49 1017.99 1017.58 1017.19 1016.79
1012.84 1014.06 1014.69 1014.30 1013.62 1013.28 1013.74 1014.72 1016.15 1018.29 1019.40 1019.64 1019.24 1017.51 1015.88 1015.64 1015.57 1015.73 1016.30 1016.77 1016.94 1017.36 1017.99 1018.43 1018.65 1018.95 1019.40 1019.56 1019.59 1019.49 1019.34 1019.25 1019.17 1018.97 1018.97 1018.99 1018.87 1018.51 1018.43 1018.11 1017.70 1017.31 1016.92 1016.47
1013.26 1014.95 1015.71 1015.32 1014.73 1013.97 1014.12 1014.66 1015.52 1017.25 1018.38 1019.01 1019.23 1017.71 1016.09 1015.77 1016.05 1016.31 1016.39 1016.71 1017.16 1017.54 1018.08 1018.61 1018.92 1019.09 1019.39 1019.52 1019.41 1019.28 1019.20 1019.17 1019.04 1018.94 1018.94 1018.84 1018.59 1018.06 1017.97 1017.69 1017.38 1017.03 1016.68 1016.31
1013.56 1015.27 1015.95 1016.17 1015.55 1015.08 1014.93 1015.03 1015.41 1016.71 1018.34 1018.23 1018.00 1017.10 1016.56 1016.40 1016.40 1016.43 1016.57 1017.07 1017.34 1017.65 1018.16 1018.72 1019.04 1019.08 1019.28 1019.35 1019.28 1019.25 1019.20 1019.09 1019.01 1019.00 1019.00 1018.84 1018.44 1017.86 1017.69 1017.42 1017.10 1016.82 1016.51 1016.13
1014.70 1016.03 1016.19 1016.06 1015.80 1015.37 1015.23 1015.12 1015.32 1015.85 1016.14 1017.04 1016.55 1016.35 1015.93 1016.06 1016.21 1016.13 1016.36 1016.91 1017.48 1017.91 1018.09 1018.42 1018.80 1018.90 1019.17 1019.31 1019.26 1019.22 1019.26 1019.29 1019.23 1019.14 1018.92 1018.70 1018.15 1017.63 1017.42 1017.19 1016.90 1016.65 1016.30 1015.96
1015.57 1016.56 1016.77 1016.72 1016.13 1015.93 1015.66 1015.37 1015.22 1015.26 1015.25 1015.68 1015.54 1015.89 1015.58 1015.77 1016.02 1016.67 1017.00 1017.32 1017.61 1017.84 1017.87 1018.20 1018.46 1018.46 1018.91 1019.09 1019.13 1019.19 1019.29 1019.38 1019.28 1019.10 1018.79 1018.36 1017.99 1017.58 1017.20 1016.98 1016.73 1016.47 1016.07 1015.72
1016.26 1017.24 1017.96 1017.93 1017.17 1016.66 1016.37 1016.13 1015.60 1015.20 1015.48 1015.65 1016.03 1016.17 1016.01 1016.43 1016.52 1016.98 1017.17 1017.22 1017.43 1017.62 1017.67 1017.90 1018.03 1018.14 1018.38 1018.59 1018.73 1019.04 1019.42 1019.54 1019.53 1019.30 1018.79 1018.31 1017.96 1017.45 1017.06 1016.79 1016.58 1016.28 1015.86 1015.55
1016.48 1017.60 1018.40 1018.82 1018.22 1017.70 1016.74 1016.14 1015.69 1016.07 1016.19 1016.06 1016.15 1016.19 1016.36 1016.46 1016.73 1016.61 1016.74 1016.87 1016.94 1016.96 1017.17 1017.53 1017.49 1017.79 1018.06 1018.24 1018.62 1018.96 1019.20 1019.40 1019.36 1019.21 1018.88 1018.39 1017.88 1017.43 1016.95 1016.65 1016.45 1016.11 1015.72 1015.38
1016.08 1017.80 1019.10 1019.35 1019.18 1018.04 1016.91 1016.46 1016.44 1016.33 1016.58 1016.11 1016.05 1016.25 1015.98 1016.41 1017.02 1016.83 1016.44 1016.17 1016.12 1016.45 1016.62 1016.79 1017.05 1017.41 1017.78 1018.21 1018.64 1019.06 1019.40 1019.38 1019.17 1018.89 1018.83 1018.45 1017.83 1017.38 1016.88 1016.53 1016.25 1015.92 1015.53 1015.16
1017.13 1017.67 1018.71 1019.86 1019.69 1018.96 1017.22 1016.61 1016.29 1016.41 1016.57 1015.96 1015.96 1015.92 1016.17 1016.52 1016.97 1016.98 1016.09 1015.98 1015.82 1015.83 1015.99 1016.42 1017.11 1017.30 1017.85 1018.44 1018.65 1019.15 1019.61 1019.40 1019.04 1018.61 1018.54 1018.30 1017.78 1017.35 1016.87 1016.46 1016.18 1015.94 1015.57 1015.09
1017.94 1018.63 1019.25 1019.45 1019.34 1018.23 1016.85 1016.48 1016.42 1017.14 1017.27 1016.16 1016.23 1016.19 1016.11 1016.49 1016.57 1016.26 1015.88 1015.63 1015.53 1015.62 1015.82 1016.33 1017.16 1017.43 1017.99 1018.52 1018.78 1019.32 1019.37 1019.29 1018.79 1018.39 1018.15 1018.06 1017.73 1017.32 1016.83 1016.53 1016.27 1016.03 1015.63 1015.24
1017.51 1018.51 1019.20 1019.77 1019.34 1018.00 1016.13 1016.58 1016.87 1016.95 1016.41 1016.22 1016.33 1016.51 1016.37 1016.57 1016.55 1016.43 1016.09 1015.95 1015.53 1015.52 1015.72 1016.45 1017.23 1017.84 1018.35 1018.60 1018.75 1019.17 1019.21 1019.00 1018.55 1018.32 1018.08 1017.92 1017.75 1017.30 1016.91 1016.71 1016.45 1016.16 1015.81 1015.49
1017.23 1017.34 1017.82 1018.82 1018.12 1016.91 1016.32 1016.33 1016.37 1016.42 1016.25 1016.20 1016.38 1016.64 1016.64 1016.69 1016.57 1016.37 1016.27 1016.03 1015.77 1015.74 1016.21 1016.69 1017.25 1018.16 1018.50 1018.62 1018.67 1018.98 1018.85 1018.64 1018.44 1018.26 1018.00 1017.88 1017.72 1017.38 1017.22 1016.95 1016.73 1016.42 1016.10 1015.86
1016.67 1016.89 1017.47 1017.97 1017.15 1016.46 1016.13 1016.02 1016.09 1016.14 1015.98 1016.02 1016.25 1016.46 1016.62 1016.68 1016.57 1016.50 1016.37 1016.19 1016.01 1015.82 1016.13 1016.78 1017.64 1018.30 1018.73 1018.78 1018.68 1018.79 1018.49 1018.25 1018.32 1018.18 1018.01 1017.98 1017.77 1017.60 1017.42 1017.23 1017.06 1016.81 1016.60 1016.32
1016.94 1016.73 1017.50 1017.81 1017.15 1016.57 1016.43 1016.19 1016.12 1015.91 1015.94 1016.08 1016.12 1016.25 1016.36 1016.53 1016.54 1016.50 1016.50 1016.20 1015.89 1015.71 1016.12 1016.78 1017.60 1018.09 1018.54 1018.69 1018.68 1018.64 1018.27 1018.19 1018.39 1018.20 1018.08 1018.13 1017.89 1017.83 1017.71 1017.62 1017.54 1017.22 1017.14 1017.01
1016.87 1016.95 1017.37 1017.43 1017.22 1017.05 1016.77 1016.29 1016.06 1016.13 1016.21 1016.25 1016.35 1016.38 1016.41 1016.49 1016.70 1016.63 1016.54 1016.02 1015.73 1015.79 1015.89 1016.71 1017.35 1017.83 1018.32 1018.51 1018.56 1018.52 1018.23 1018.22 1018.36 1018.24 1018.20 1018.27 1018.10 1018.00 1018.05 1017.97 1017.80 1017.63 1017.41 1017.30
Wind_Speed
5 6 4 9 7 5 6 7 7 3 6 5 1 3 6 8 14 17 14 12 12 13 7 9 3 5 7 5 7 7 7 3 3 3 2 3 3 2 2 3 3 5 5 5
7 5 11 8 5 8 8 8 6 3 3 4 5 7 5 7 7 15 16 14 13 6 7 12 5 6 4 4 5 6 7 4 6 4 2 2 2 2 2 1 2 3 3 4
6 9 4 3 6 8 4 6 1 3 6 3 5 6 4 5 10 10 6 10 12 16 16 10 7 4 1 5 6 6 6 7 7 3 2 1 1 2 3 3 3 4 5 5
5 4 8 8 5 5 4 3 3 5 6 3 4 2 3 4 7 9 8 9 10 11 6 5 5 6 7 7 6 7 6 7 5 6 3 3 3 2 3 2 1 4 5 5
6 4 7 7 2 2 3 3 3 3 2 4 2 7 7 2 6 5 7 11 10 10 7 6 7 9 7 6 6 5 7 7 6 5 3 3 2 3 1 2 3 3 4 6
5 5 5 5 5 5 2 7 9 6 3 4 4 5 4 2 3 2 6 7 9 6 7 7 7 6 6 5 6 7 8 5 3 3 4 5 4 2 1 2 3 4 3 4
6 4 1 5 6 8 12 9 6 8 8 5 3 6 6 3 5 7 7 7 7 5 7 8 8 7 8 9 8 5 5 3 4 4 2 3 5 3 3 4 3 4 3 3
3 5 3 3 5 3 4 7 6 0 2 6 7 3 5 7 5 7 8 7 6 7 4 6 6 6 7 7 5 5 7 4 4 3 4 4 3 3 2 2 2 3 3 4
3 3 3 5 3 7 4 4 5 5 2 2 3 2 6 6 6 7 6 7 6 7 6 5 5 5 5 5 7 7 5 3 1 3 4 3 1 2 3 3 3 3 4 4
2 2 3 3 7 3 5 3 5 5 1 3 5 3 5 6 7 5 6 8 8 7 9 8 7 7 5 5 4 5 4 3 2 3 3 2 3 3 2 4 5 5 5 4
5 5 6 4 2 4 4 3 6 5 5 4 2 6 6 8 8 7 7 7 7 6 6 7 7 6 6 5 4 4 3 4 4 4 3 4 3 3 4 5 6 6 7 6
2 6 2 3 4 2 5 5 6 7 6 2 4 8 6 8 9 8 6 5 2 7 8 8 8 7 6 4 3 3 2 4 3 2 3 3 1 1 5 6 6 7 8 7
3 3 3 8 9 6 5 1 4 5 4 5 7 8 1 6 6 5 9 7 6 8 8 7 6 6 5 3 3 2 2 3 2 4 4 1 2 4 7 6 6 7 8 7
7 4 7 8 7 3 4 4 4 5 4 4 6 7 5 6 8 6 5 7 8 7 8 7 6 5 4 3 1 2 2 3 3 4 4 4 4 5 6 6 6 6 7 7
6 3 1 2 2 2 3 5 6 3 6 6 8 8 6 8 8 7 6 8 8 7 7 7 7 5 4 2 1 1 2 4 3 4 4 5 5 5 6 6 6 6 7 7
3 2 2 4 5 7 5 7 7 5 3 2 8 4 4 2 4 4 8 8 7 6 7 7 6 7 4 2 2 2 3 3 3 4 4 6 5 6 6 6 6 7 7 7
4 5 3 4 4 5 5 5 6 2 6 3 5 2 2 3 4 6 6 7 8 7 7 8 8 7 6 5 4 3 4 2 4 5 6 6 6 6 6 7 7 7 7 7
6 6 3 4 3 2 5 2 1 10 4 6 7 7 2 5 3 6 6 8 8 8 7 8 7 6 5 4 3 6 5 4 4 5 6 6 7 7 6 7 6 7 6 6
6 5 3 4 2 5 1 5 3 2 3 2 5 4 6 4 1 3 6 7 8 8 8 8 7 5 6 5 5 6 5 4 4 5 6 7 8 7 7 7 7 7 7 6
7 6 6 2 3 6 6 3 4 2 5 5 2 2 3 4 3 5 7 5 8 8 7 7 6 5 6 4 7 7 3 3 5 5 6 8 8 5 6 7 7 6 6 5
2 1 6 4 3 7 6 6 1 4 9 2 2 4 1 3 6 5 6 6 7 7 8 5 6 6 7 6 7 6 2 3 5 4 5 7 5 6 5 6 5 5 5 4
7 6 3 3 2 6 4 4 5 8 3 1 4 5 4 5 5 4 7 7 7 8 7 7 7 6 6 6 6 5 2 4 6 4 5 7 5 4 4 6 6 5 4 3
0 7 7 9 8 5 1 3 3 4 2 3 2 2 0 2 4 7 6 8 7 7 3 5 8 7 5 5 6 5 1 3 6 5 6 5 5 4 5 6 5 3 4 3
5 2 4 4 5 5 5 4 3 3 4 3 3 3 1 4 6 7 7 8 6 3 7 6 8 7 5 5 5 3 1 2 5 5 5 4 4 4 4 4 3 3 3 3
3 4 3 2 5 6 6 2 3 1 4 3 2 1 4 4 8 5 7 8 8 4 6 7 7 7 7 5 4 3 0 3 4 5 4 4 3 3 4 3 3 3 2 2
2 4 4 5 5 5 3 2 4 4 2 3 3 3 5 2 7 6 8 7 7 4 7 7 7 8 6 5 5 2 2 3 4 4 3 3 2 2 2 3 3 7 6 8
Wind_Direction
352 54 274 271 226 204 114 74 72 17 354 81 9 277 328 104 100 136 144 158 174 186 210 218 217 276 187 215 152 169 148 187 115 73 76 31 12 330 25 37 63 37 30 13
8 280 238 239 213 83 70 59 357 271 31 88 359 8 31 45 113 147 155 175 179 172 203 215 204 248 205 188 176 103 103 146 102 108 116 139 214 234 217 298 337 17 349 340
167 236 217 90 34 80 56 95 55 219 339 340 61 26 40 33 92 114 154 176 175 184 197 213 202 235 184 135 147 155 152 132 105 139 170 185 242 0 358 333 314 332 338 352
206 238 84 77 68 117 47 309 26 348 42 280 88 258 333 51 56 117 151 180 189 194 205 211 211 191 175 180 175 181 144 116 173 175 163 172 186 218 242 241 309 316 344 333
279 95 95 81 144 88 249 8 326 295 232 66 32 78 278 333 48 27 129 191 194 193 195 188 196 169 195 165 162 140 144 187 200 189 155 150 206 229 289 301 321 314 299 303
201 157 102 154 41 67 348 15 23 33 78 45 342 130 300 297 169 43 50 100 162 164 175 169 192 160 174 151 144 166 181 200 179 148 179 188 206 242 280 290 275 288 287 288
3 352 51 87 50 20 53 45 353 8 12 236 338 64 218 235 174 139 124 123 159 178 175 172 180 148 141 149 171 183 158 163 168 166 174 157 150 174 223 252 256 285 287 275
104 6 6 9 117 109 73 118 140 275 293 282 336 85 235 222 91 73 82 137 162 161 194 193 173 155 149 162 157 144 144 150 188 160 144 140 168 202 245 264 280 276 252 277
100 9 4 119 85 106 322 25 180 112 9 33 284 357 3 58 67 70 67 59 96 149 199 175 137 165 157 144 146 139 145 156 115 119 143 175 220 345 321 310 256 256 275 288
192 79 37 350 60 23 127 178 27 15 310 312 311 225 225 183 174 134 104 111 93 106 124 154 153 150 143 134 133 120 93 79 61 117 103 64 16 55 339 302 298 294 286 298
112 103 291 43 36 210 360 20 61 109 129 162 312 275 217 198 181 156 145 135 157 152 97 116 110 109 124 113 93 85 76 96 97 86 80 68 67 13 299 311 308 311 310 295
61 132 142 193 277 186 164 172 125 117 269 183 154 273 294 187 177 149 145 185 193 83 120 131 139 135 122 125 114 118 91 110 92 85 83 95 53 358 348 300 303 306 302 295
187 27 47 352 352 350 49 342 121 119 78 205 138 265 332 66 98 154 132 140 95 117 123 127 121 124 129 126 114 63 70 111 75 43 49 2 294 14 312 295 294 304 309 303
82 112 151 185 205 191 328 313 305 120 120 220 218 250 188 185 165 175 177 119 132 138 135 135 131 136 138 137 124 61 126 79 58 39 6 326 310 324 311 296 297 303 310 309
90 107 94 181 291 357 289 285 301 287 214 153 250 194 185 194 191 198 158 147 117 118 133 147 153 156 162 148 54 89 79 65 54 23 351 315 300 322 305 300 301 306 305 308
28 201 85 342 339 6 315 326 327 280 236 21 70 120 244 67 101 99 139 126 129 141 150 159 174 153 168 158 150 23 107 83 27 4 338 311 328 316 311 298 317 307 306 308
121 121 83 279 331 342 3 330 299 2 26 128 82 278 68 98 117 131 141 142 157 178 176 183 188 169 179 172 168 92 128 40 14 1 329 333 314 312 317 315 318 310 313 308
135 123 112 205 26 354 239 238 268 101 68 59 49 35 114 142 214 153 182 172 187 192 192 192 181 186 184 170 134 123 106 61 30 337 326 324 316 318 316 326 315 311 310 306
135 117 91 128 179 275 294 15 358 40 342 310 133 169 140 164 221 297 218 198 195 200 207 196 187 178 159 146 115 105 81 48 4 333 326 312 311 314 324 323 317 315 305 304
48 72 115 150 132 236 235 258 234 204 288 221 58 34 303 149 33 261 265 232 222 215 191 180 188 146 134 119 114 105 83 16 339 327 317 308 313 307 322 316 321 328 325 320
144 110 178 165 199 278 224 218 13 104 241 298 0 292 261 139 196 236 292 309 224 216 204 173 161 145 139 134 117 110 94 340 297 327 324 313 317 318 319 322 340 320 326 339
183 143 181 97 141 278 165 117 166 216 223 274 29 351 47 29 351 326 288 309 298 214 194 158 138 127 137 134 123 119 60 300 310 348 333 323 322 329 344 346 340 333 340 20
254 177 181 163 211 247 317 103 200 178 132 54 53 257 251 328 305 294 311 339 328 262 176 149 140 138 153 141 126 116 243 314 309 345 336 328 327 346 12 357 349 346 351 29
342 160 79 83 318 258 244 172 125 173 130 157 156 198 272 310 322 308 312 308 297 251 176 152 139 147 143 142 129 145 171 328 328 346 345 341 344 9 16 5 344 2 13 29
217 49 133 339 334 29 34 113 186 37 43 4 318 269 270 277 301 293 299 293 277 263 155 149 149 153 150 157 147 197 285 11 340 358 1 353 355 23 19 23 359 15 51 0
191 177 145 201 234 155 211 165 148 123 50 31 74 5 335 272 279 290 293 277 271 207 158 145 153 143 153 158 161 213 359 11 349 13 7 353 357 15 31 18 23 46 56 56